カタログに戻る

STARLINK-30357

運用中通信VLEO
NORAD 57750·PAYLOAD·🇺🇸 United States

打ち上げ Sep 1, 2023 から Cape Canaveral Space Force Station

Loading…

次のパス (今後24時間)

TLE

最新Source: CelesTrak SupGP

元期: Sep 15, 2026, 03:03 UTC

1 57750C 23131U   26258.12756944 -.00011490  00000+0 -41626-3 0  2581
2 57750  43.0028 190.0284 0001355 272.6690   5.2814 15.27575585    14

AllMySatでSTARLINK-30357をリアルタイム追跡

Download on the App Store